Terminal Aerodrome Forecast
Issued by NWS

Home | Current Version | Previous Version | Text Only | Print | Product List | Glossary On
Versions: 1 2 3 4 5 6 7 8 9 10 11 12 13 14 15 16 17 18
000
FTUS44 KMAF 182300
TAFPEQ
TAF
KPEQ 182326Z 1900/1924 11010G20KT P6SM SCT250
     FM190600 11008KT P6SM OVC100 PROB30 1917/1923 P6SM -TSRA
      SCT040CB BKN250=

USA.gov is the U.S. government's official web portal to all federal, state and local government web resources and services.